METEOR 2-17 DEB, 29301

Orbit data source: Space-Track

METEOR 2-17 DEB, 29301 is space debris in LEO originally from a launch on Sat, 30 Jan 1988 UTC launched from the Plesetsk Missile And Space Complex (PKMTR). Debris objects in space refer to the collection of defunct objects orbiting the Earth. Examples of debris include non-operational satellites, rocket bodies, and fragments generated from explosions, collisions, or faulty payload assembly.

Loading next visibility...
Identifier
29301, 1988-005Q
Orbit
LEO
Country
Flag of CISCIS
Related business
Manufacturer
Unknown
Mission
Spacecraft
Bus & Motor
Unknown
Mass
Unknown
Launch date (UTC)
1988-01-30 (38 years ago)
Launch vehicle
Unknown
Launch site
Plesetsk Missile And Space Complex (PKMTR)
Object type
Payload
Rocket body
Debris
Shape & HBR
Unknown shape, 0.1 m
Radar Cross Section
Small (<0.1 m²)

Expand to show TLE details & history
Last TLE update: 3 days ago

TLE from 3 days ago
0 METEOR 2-17 DEB
1 29301U 88005Q   25304.86299569  .00002792  00000-0  18726-2 0  9990
2 29301  82.5310  86.5863 0024589 256.1577 257.1958 14.00350477600917
Epoch: 2025-10-31T20:42Z
TLE epoch observation values (Epoch: 2025-10-31T20:42:42.827Z)
Latitude
26.71087°
Longitude
-88.25608°
Altitude
899.853 km
Speed
7.402 km/s
True Right ascension
17h 31m 17s
True Declination
26° 34' 33"
Sunlit
Object was in daylight at epoch
Visualization orbit readout
Latitude
Unknown
Longitude
Unknown
Altitude
Unknown
Speed
Unknown
Apparent Right ascension
Unknown
Apparent Declination
Unknown
Sunlit
N/A
Visualization observer readout
Local Sidereal Time
15:15:13
Azimuth
Unknown
Elevation
Unknown
Doppler factor
Unknown
Orbital elements
Apogee altitude
907.583 km
Perigee altitude
871.841 km
Semi-major axis
7,267.849 km
Eccentricity
0.00246
Inclination
82.531°
RAAN
86.5863°
Arg. of periapsis
256.1577°
True anomaly
256.92123°
Mean anomaly
257.1958°
Eccentric anomaly
257.05849°
Mean motion
3.50295 °/min
Orbital period
102.77 mins
BSTAR
0.0018726
Loading maneuver chart data...
Computing Atmospheric mass density...
Loading historical data...
Loading historical data...
Loading historical data...
Loading historical data...
Loading historical data...
Loading historical data...
Loading historical data...

Documentation

Showing up to 5 results
|